Location: Asheville, NC
(35.6000°N, 82.5500°W)
Time: 02:32:38
(UTC-04:00)

XW-2A - Pass Details

Date: 12 March 2018
Orbit: 434 x 454 km, 97.4° (Epoch: 20 June)

Event Time Altitude Azimuth Distance (km) Brightness Sun altitude
Exits shadow 20:46:49 - 168° (SSE) 2,153 ? -15.3°
Reaches altitude 10° 20:48:15 10° 169° (SSE) 1,530 ? -15.6°
Maximum altitude 20:51:32 87° 257° (WSW) 439 ? -16.3°
Drops below altitude 10° 20:54:50 10° 348° (NNW) 1,545 ? -17.0°
Sets 20:56:52 0° 348° (NNW) 2,420 ? -17.4°
